User: anonymous
Location: Unspecified
(0.0000°N, 0.0000°E)
Time: 06:23:13
(UTC+02:00)
Language:

Ariane H10 - Orbit

View from above orbital plane
View from above orbital plane
View from above satellite
View from above satellite

Ground track
Ground track

The orbit data is extracted from the following two-line orbital elements,

1 19622U 88098B   14273.72453941  .00002491  00000-0  97582-3 0  8961
2 19622 003.9103 110.1974 6456881 005.7263 015.9933 03.35596377270515
Epoch (UTC): 30 September 2014 17:23:20
Eccentricity: 0.6456881
inclination: 3.9103°
perigee height: 299 km
apogee height: 24634 km
right ascension of ascending node: 110.1974°
argument of perigee: 5.7263°
revolutions per day: 3.35596377
mean anomaly at epoch: 15.9933°
orbit number at epoch: 27051

The dashed part of the orbit path shows where the satellite is in the earth's shadow,  

DLR